Retour au catalogue

COSMOS 1823 DEB

ActifLEO
NORAD 29358·DEBRIS·🇷🇺 Russia

Lancé Feb 20, 1987 depuis Plesetsk Cosmodrome

Loading…

Prochains Passages (prochaines 24 heures)

TLE

PériméSource: Space-Track

Époque: Sep 4, 2026, 17:06 UTC

1 29358U 87020DZ  26247.71300086  .00036347  00000-0  11836-1 0  9993
2 29358  73.7943  21.7494 0017235  42.8587 317.3906 14.38432425608246

Suivez COSMOS 1823 DEB en temps réel avec AllMySat

Download on the App Store